星链-3310 (STARLINK-3310 )

导读

STARLINK-3310是美国SpaceX公司星链(Starlink)卫星互联网星座的成员,于2022年1月6日发射入轨,属于星链星座快速扩张阶段部署的卫星。它运行在低地球轨道,作为星链全球互联网络的组成部分,旨在为全球提供高速低延迟宽带互联网服务,重点覆盖地面基础设施难以到达的偏远区域,助力消除数字鸿沟,也支撑星链在应急通信和特种领域的应用。

基本信息
目录编号:
50835
目录名称:
STARLINK-3310
国际标识:
2022-001AJ
轨道中心:
EARTH
卫星名称:
星链-3310
卫星全名:
星链-3310 (STARLINK-3310 )
卫星状态:
在轨 (已飞行1623 天)
发射日期:
2022-01-06 UTC
国别 :
美国 (US)
星等 :
--
轨道信息
数据来源 国际轨道数据 AOE轨道数据
星历时间 2026-06-17T10:25:38+0800
18小时前
查看轨道信息
2026-06-17T01:00:00+0800
1天前
查看轨道信息
半长轴 6912.521km 6912.577km
偏心率 0.000171 0.0002049
轨道倾角 53.215° 53.216°
近地点辐角 91.333° 78.980°
升交点赤经 92.639° 94.409°
平近点角 268.786° 303.848°
近地点 533.201km 533.023km
远地点 535.567km 535.857km
周期 95.327分钟 95.328分钟
每日圈数 15.105953 15.105769
详细信息
固有亮度:
5
最大亮度:
2.5
卫星平台:
Starlink v1.5
覆盖范围:
全球
运营商:
太空探索技术公司
运营商所在国:
美国
制造商(研发单位):
太空探索技术公司
制造商所在国:
美国
使用方式:
暂无
卫星简介
星链(Starlink)计划是由太空探索技术公司(SpaceX)提出的一个巨型低轨卫星互联网星座项目,计划在2019年至2024年间在太空搭建由约1.2万颗卫星组成的“星链”网络,其中1584颗将部署在地球上空550千米处的近地轨道,并从2020年开始工作。该卫星仍在工作。
2D轨道图
3D轨道图
轨道高度分析图
轨道倾角分析图
轨道综合分析图
查看轨道综合分析图